Time,TemperatureF,DewpointF,PressureIn,WindDirection,WindDirectionDegrees,WindSpeedMPH,WindSpeedGustMPH,Humidity,HourlyPrecipIn,Conditions,Clouds,dailyrainin,SoftwareType,DateUTC
2013-08-02 00:00:00,65.6,56.7,29.94,NNW,345,0.0,0.0,73,0.00,RA,SKC,0.00,WeatherDisplay:10.37,2013-08-02 04:00:00,
2013-08-02 00:10:00,66.3,57.7,29.95,NNW,345,0.0,0.0,74,0.00,CLR,SKC,0.00,WeatherDisplay:10.37,2013-08-02 04:10:00,
2013-08-02 00:20:00,65.0,57.3,29.95,NNW,345,0.0,0.0,76,0.00,CLR,SKC,0.00,WeatherDisplay:10.37,2013-08-02 04:20:00,
2013-08-02 00:30:00,65.3,57.5,29.95,NNW,345,0.0,0.0,76,0.00,CLR,SKC,0.00,WeatherDisplay:10.37,2013-08-02 04:30:00,
2013-08-02 00:40:00,63.7,57.1,29.94,NNW,345,0.0,0.0,79,0.00,CLR,SKC,0.00,WeatherDisplay:10.37,2013-08-02 04:40:00,
2013-08-02 00:50:00,64.8,57.8,29.95,NNW,345,0.0,0.0,78,0.00,CLR,SKC,0.00,WeatherDisplay:10.37,2013-08-02 04:50:00,
2013-08-02 01:00:00,63.6,57.3,29.95,NNW,345,0.0,0.0,80,0.00,CLR,SKC,0.00,WeatherDisplay:10.37,2013-08-02 05:00:00,
2013-08-02 01:10:00,63.5,57.9,29.95,NNW,345,0.0,0.0,82,0.00,CLR,SKC,0.00,WeatherDisplay:10.37,2013-08-02 05:10:00,
2013-08-02 01:20:00,62.8,56.9,29.95,NNW,345,0.0,0.0,81,0.00,CLR,SKC,0.00,WeatherDisplay:10.37,2013-08-02 05:20:00,
2013-08-02 01:30:00,62.9,57.7,29.95,NNW,345,0.0,0.0,83,0.00,CLR,SKC,0.00,WeatherDisplay:10.37,2013-08-02 05:30:00,
2013-08-02 01:40:00,63.2,57.6,29.95,NNW,345,0.0,0.0,82,0.00,CLR,SKC,0.00,WeatherDisplay:10.37,2013-08-02 05:40:00,
2013-08-02 01:50:00,63.1,56.5,29.95,NNW,345,0.0,0.0,79,0.00,CLR,SKC,0.00,WeatherDisplay:10.37,2013-08-02 05:50:00,
2013-08-02 02:00:00,62.6,57.4,29.95,NNW,345,0.0,0.0,83,0.00,CLR,SKC,0.00,WeatherDisplay:10.37,2013-08-02 06:00:00,
2013-08-02 02:10:00,62.8,57.2,29.94,NNW,345,0.0,0.0,82,0.00,CLR,SKC,0.00,WeatherDisplay:10.37,2013-08-02 06:10:00,
2013-08-02 02:20:00,63.4,57.4,29.93,NNW,345,0.0,0.0,81,0.00,CLR,SKC,0.00,WeatherDisplay:10.37,2013-08-02 06:20:00,
2013-08-02 02:30:00,61.7,56.4,29.93,NNW,345,0.0,0.0,83,0.00,CLR,SKC,0.00,WeatherDisplay:10.37,2013-08-02 06:30:00,
2013-08-02 02:40:00,62.8,57.2,29.94,NNW,345,0.0,0.0,82,0.00,CLR,SKC,0.00,WeatherDisplay:10.37,2013-08-02 06:40:00,
2013-08-02 02:50:00,61.7,56.8,29.93,NNW,345,0.0,0.0,84,0.00,CLR,SKC,0.00,WeatherDisplay:10.37,2013-08-02 06:50:00,
2013-08-02 02:59:00,61.1,56.9,29.94,NNW,345,0.0,0.0,86,0.00,CLR,SKC,0.00,WeatherDisplay:10.37,2013-08-02 06:59:00,
2013-08-02 03:10:00,62.7,57.2,29.94,NNW,345,0.0,0.0,82,0.00,CLR,SKC,0.00,WeatherDisplay:10.37,2013-08-02 07:10:00,
2013-08-02 03:20:00,61.0,56.2,29.94,NNW,345,0.0,0.0,84,0.00,CLR,SKC,0.00,WeatherDisplay:10.37,2013-08-02 07:20:00,
2013-08-02 03:30:00,61.1,56.3,29.94,NNW,345,0.0,0.0,84,0.00,CLR,SKC,0.00,WeatherDisplay:10.37,2013-08-02 07:30:00,
2013-08-02 03:40:00,61.6,56.0,29.94,NNW,345,0.0,0.0,82,0.00,CLR,SKC,0.00,WeatherDisplay:10.37,2013-08-02 07:40:00,
2013-08-02 03:50:00,62.3,57.1,29.94,NNW,345,0.0,0.0,83,0.00,CLR,SKC,0.00,WeatherDisplay:10.37,2013-08-02 07:50:00,
2013-08-02 03:59:00,60.4,55.9,29.94,NNW,345,0.0,0.0,85,0.00,CLR,SKC,0.00,WeatherDisplay:10.37,2013-08-02 07:59:00,
2013-08-02 04:09:00,60.5,56.0,29.95,NNW,345,0.0,0.0,85,0.00,CLR,SKC,0.00,WeatherDisplay:10.37,2013-08-02 08:09:00,
2013-08-02 04:20:00,59.9,56.0,29.95,NNW,345,0.0,0.0,87,0.00,CLR,SKC,0.00,WeatherDisplay:10.37,2013-08-02 08:20:00,
2013-08-02 04:30:00,58.9,55.4,29.95,NNW,345,0.0,0.0,88,0.00,CLR,SKC,0.00,WeatherDisplay:10.37,2013-08-02 08:30:00,
2013-08-02 04:39:00,60.5,55.7,29.95,NNW,345,0.0,0.0,84,0.00,CLR,SKC,0.00,WeatherDisplay:10.37,2013-08-02 08:39:00,
2013-08-02 04:49:00,60.0,55.8,29.95,NNW,345,0.0,0.0,86,0.00,CLR,SKC,0.00,WeatherDisplay:10.37,2013-08-02 08:49:00,
2013-08-02 04:59:00,59.0,55.1,29.95,NNW,345,0.0,0.0,87,0.00,CLR,SKC,0.00,WeatherDisplay:10.37,2013-08-02 08:59:00,
2013-08-02 05:09:00,59.8,55.3,29.95,NNW,345,0.0,0.0,85,0.00,CLR,SKC,0.00,WeatherDisplay:10.37,2013-08-02 09:09:00,
2013-08-02 05:19:00,59.3,55.1,29.95,NNW,345,0.0,0.0,86,0.00,CLR,SKC,0.00,WeatherDisplay:10.37,2013-08-02 09:19:00,
2013-08-02 05:29:00,60.0,55.8,29.95,NNW,345,0.0,0.0,86,0.00,CLR,SKC,0.00,WeatherDisplay:10.37,2013-08-02 09:29:00,
2013-08-02 05:39:00,59.9,55.4,29.95,NNW,345,0.0,0.0,85,0.00,CLR,SKC,0.00,WeatherDisplay:10.37,2013-08-02 09:39:00,
2013-08-02 05:49:00,59.5,55.6,29.95,NNW,345,0.0,0.0,87,0.00,CLR,SKC,0.00,WeatherDisplay:10.37,2013-08-02 09:49:00,
2013-08-02 05:59:00,59.7,56.1,29.95,NNW,345,0.0,0.0,88,0.00,CLR,SKC,0.00,WeatherDisplay:10.37,2013-08-02 09:59:00,
2013-08-02 06:09:00,59.5,55.9,29.96,NNW,345,0.0,0.0,88,0.00,CLR,SKC,0.00,WeatherDisplay:10.37,2013-08-02 10:09:00,
2013-08-02 06:19:00,59.5,55.3,29.95,NNW,345,0.0,0.0,86,0.00,CLR,SKC,0.00,WeatherDisplay:10.37,2013-08-02 10:19:00,
2013-08-02 06:29:00,58.8,55.2,29.95,NNW,345,0.0,0.0,88,0.00,CLR,SKC,0.00,WeatherDisplay:10.37,2013-08-02 10:29:00,
2013-08-02 06:40:00,59.7,55.8,29.95,NNW,345,0.0,0.0,87,0.00,CLR,SKC,0.00,WeatherDisplay:10.37,2013-08-02 10:40:00,
2013-08-02 06:50:00,59.2,55.3,29.96,NNW,345,0.0,0.0,87,0.00,CLR,SKC,0.00,WeatherDisplay:10.37,2013-08-02 10:50:00,
2013-08-02 07:00:00,58.4,54.6,29.96,NNW,345,0.0,0.0,87,0.00,CLR,SKC,0.00,WeatherDisplay:10.37,2013-08-02 11:00:00,
2013-08-02 07:10:00,59.3,55.1,29.96,NNW,345,0.0,0.0,86,0.00,CLR,SKC,0.00,WeatherDisplay:10.37,2013-08-02 11:10:00,
2013-08-02 07:20:00,60.6,56.4,29.95,NNW,345,0.0,0.0,86,0.00,CLR,SKC,0.00,WeatherDisplay:10.37,2013-08-02 11:20:00,
2013-08-02 07:30:00,60.9,56.1,29.95,NNW,345,0.0,0.0,84,0.00,CLR,SKC,0.00,WeatherDisplay:10.37,2013-08-02 11:30:00,
2013-08-02 07:40:00,61.9,57.0,29.95,NNW,345,0.0,0.0,84,0.00,CLR,SKC,0.00,WeatherDisplay:10.37,2013-08-02 11:40:00,
2013-08-02 07:50:00,63.4,58.1,29.95,NNW,345,0.0,0.0,83,0.00,CLR,SKC,0.00,WeatherDisplay:10.37,2013-08-02 11:50:00,
2013-08-02 08:00:00,64.5,58.2,29.95,NNW,345,0.0,0.0,80,0.00,CLR,SKC,0.00,WeatherDisplay:10.37,2013-08-02 12:00:00,
2013-08-02 08:10:00,66.0,59.3,29.96,NNW,345,0.0,0.0,79,0.00,CLR,SKC,0.00,WeatherDisplay:10.37,2013-08-02 12:10:00,
2013-08-02 08:20:00,64.8,58.1,29.95,WSW,248,0.0,7.0,79,0.00,CLR,SKC,0.00,WeatherDisplay:10.37,2013-08-02 12:20:00,
2013-08-02 08:30:00,64.6,54.9,29.95,SSW,211,0.0,3.0,71,0.00,CLR,SKC,0.00,WeatherDisplay:10.37,2013-08-02 12:30:00,
2013-08-02 08:40:00,64.2,57.2,29.95,SW,217,0.0,0.0,78,0.00,CLR,SKC,0.00,WeatherDisplay:10.37,2013-08-02 12:40:00,
2013-08-02 08:50:00,64.6,57.3,29.95,SW,217,0.0,0.0,77,0.00,CLR,SKC,0.00,WeatherDisplay:10.37,2013-08-02 12:50:00,
2013-08-02 09:00:00,65.2,57.8,29.95,SW,215,0.0,3.0,77,0.00,CLR,SKC,0.00,WeatherDisplay:10.37,2013-08-02 13:00:00,
2013-08-02 09:10:00,64.3,55.1,29.95,SW,214,0.0,2.0,72,0.00,CLR,SKC,0.00,WeatherDisplay:10.37,2013-08-02 13:10:00,
2013-08-02 09:20:00,64.3,55.5,29.94,SW,220,0.0,7.0,73,0.00,CLR,SKC,0.00,WeatherDisplay:10.37,2013-08-02 13:20:00,
2013-08-02 09:30:00,65.3,56.0,29.95,SW,220,0.0,5.0,72,0.00,CLR,SKC,0.00,WeatherDisplay:10.37,2013-08-02 13:30:00,
2013-08-02 09:40:00,65.1,55.8,29.95,WSW,251,0.0,5.0,72,0.00,CLR,SKC,0.00,WeatherDisplay:10.37,2013-08-02 13:40:00,
2013-08-02 09:50:00,65.1,55.1,29.96,WNW,287,1.0,9.0,70,0.00,CLR,SKC,0.00,WeatherDisplay:10.37,2013-08-02 13:50:00,
2013-08-02 10:00:00,66.2,55.7,29.95,West,272,0.0,0.0,69,0.00,CLR,SKC,0.00,WeatherDisplay:10.37,2013-08-02 14:00:00,
2013-08-02 10:10:00,66.9,56.4,29.96,West,273,0.0,5.0,69,0.00,CLR,SKC,0.00,WeatherDisplay:10.37,2013-08-02 14:10:00,
2013-08-02 10:20:00,66.0,55.1,29.97,West,273,0.0,0.0,68,0.00,CLR,SKC,0.00,WeatherDisplay:10.37,2013-08-02 14:20:00,
2013-08-02 10:30:00,65.7,56.8,29.97,West,273,0.0,0.0,73,0.00,CLR,SKC,0.00,WeatherDisplay:10.37,2013-08-02 14:30:00,
2013-08-02 10:40:00,66.0,56.7,29.96,WSW,254,5.0,9.0,72,0.00,CLR,SKC,0.00,WeatherDisplay:10.37,2013-08-02 14:40:00,
2013-08-02 10:50:00,66.8,57.9,29.96,SW,230,1.0,9.0,73,0.00,CLR,SKC,0.00,WeatherDisplay:10.37,2013-08-02 14:50:00,
2013-08-02 11:00:00,69.1,58.5,29.96,SW,219,5.0,9.0,69,0.00,CLR,SKC,0.00,WeatherDisplay:10.37,2013-08-02 15:00:00,
2013-08-02 11:10:00,66.1,54.9,29.97,WSW,256,2.0,10.0,67,0.00,CLR,SKC,0.00,WeatherDisplay:10.37,2013-08-02 15:10:00,
2013-08-02 11:20:00,65.9,58.1,30.00,WSW,258,0.0,9.0,76,0.05,RA,SKC,0.05,WeatherDisplay:10.37,2013-08-02 15:20:00,
2013-08-02 11:30:00,65.7,63.3,30.00,West,261,0.0,0.0,92,0.03,RA,SKC,0.08,WeatherDisplay:10.37,2013-08-02 15:30:00,
2013-08-02 11:40:00,62.0,60.3,30.03,NNW,329,0.0,9.0,94,0.04,RA,SKC,0.12,WeatherDisplay:10.37,2013-08-02 15:40:00,
2013-08-02 11:50:00,63.4,61.6,30.02,NNW,340,0.0,0.0,94,0.01,RA,SKC,0.13,WeatherDisplay:10.37,2013-08-02 15:50:00,
2013-08-02 12:00:00,63.8,62.0,30.01,NNW,340,0.0,0.0,94,0.00,CLR,SKC,0.13,WeatherDisplay:10.37,2013-08-02 16:00:00,
2013-08-02 12:10:00,63.5,61.1,30.00,NNW,340,0.0,0.0,92,0.00,CLR,SKC,0.13,WeatherDisplay:10.37,2013-08-02 16:10:00,
2013-08-02 12:20:00,65.5,63.7,30.00,NNW,340,0.0,3.0,94,0.00,CLR,SKC,0.13,WeatherDisplay:10.37,2013-08-02 16:20:00,
2013-08-02 12:30:00,64.5,61.5,29.99,NNW,340,0.0,2.0,90,0.00,CLR,SKC,0.13,WeatherDisplay:10.37,2013-08-02 16:30:00,
2013-08-02 12:40:00,65.3,61.7,30.00,NNW,340,0.0,0.0,88,0.00,CLR,SKC,0.13,WeatherDisplay:10.37,2013-08-02 16:40:00,
2013-08-02 12:50:00,65.3,62.6,30.01,NNW,340,0.0,0.0,91,0.01,RA,SKC,0.14,WeatherDisplay:10.37,2013-08-02 16:50:00,
2013-08-02 13:00:00,66.8,65.0,29.98,North,4,0.0,2.0,94,0.00,,SKC,0.14,WeatherDisplay:10.37,2013-08-02 17:00:00,
2013-08-02 13:10:00,66.8,63.7,29.98,East,101,0.0,0.0,90,0.00,CLR,SKC,0.14,WeatherDisplay:10.37,2013-08-02 17:10:00,
2013-08-02 13:20:00,66.2,62.9,29.98,East,101,0.0,0.0,89,0.00,CLR,SKC,0.14,WeatherDisplay:10.37,2013-08-02 17:20:00,
2013-08-02 13:30:00,65.9,61.6,29.97,SSE,163,0.0,6.0,86,0.00,CLR,SKC,0.14,WeatherDisplay:10.37,2013-08-02 17:30:00,
2013-08-02 13:40:00,68.2,62.8,29.98,SSW,204,0.0,3.0,83,0.00,CLR,SKC,0.14,WeatherDisplay:10.37,2013-08-02 17:40:00,
2013-08-02 13:50:00,68.0,61.6,29.97,SW,228,1.0,10.0,80,0.00,CLR,SKC,0.14,WeatherDisplay:10.37,2013-08-02 17:50:00,
2013-08-02 14:00:00,67.2,60.8,29.97,SSW,205,3.0,9.0,80,0.00,CLR,SKC,0.14,WeatherDisplay:10.37,2013-08-02 18:00:00,
2013-08-02 14:10:00,69.0,61.5,29.96,SW,227,5.0,9.0,77,0.00,CLR,SKC,0.14,WeatherDisplay:10.37,2013-08-02 18:10:00,
2013-08-02 14:19:00,69.5,62.0,29.95,SW,235,2.0,11.0,77,0.00,CLR,SKC,0.14,WeatherDisplay:10.37,2013-08-02 18:19:00,
2013-08-02 14:30:00,69.6,61.7,29.94,SW,222,1.0,13.0,76,0.00,CLR,SKC,0.14,WeatherDisplay:10.37,2013-08-02 18:30:00,
2013-08-02 14:40:00,68.6,61.5,29.93,SW,230,5.0,11.0,78,0.00,CLR,SKC,0.14,WeatherDisplay:10.37,2013-08-02 18:40:00,
2013-08-02 14:50:00,69.1,61.6,29.94,West,270,0.0,10.0,77,0.00,CLR,SKC,0.14,WeatherDisplay:10.37,2013-08-02 18:50:00,
2013-08-02 15:00:00,69.2,62.0,29.94,SW,232,1.0,8.0,78,0.00,CLR,SKC,0.14,WeatherDisplay:10.37,2013-08-02 19:00:00,
2013-08-02 15:10:00,71.1,63.5,29.93,SW,218,6.0,14.0,77,0.00,CLR,SKC,0.14,WeatherDisplay:10.37,2013-08-02 19:10:00,
2013-08-02 15:20:00,70.3,61.2,29.94,SSW,213,1.0,11.0,73,0.00,CLR,SKC,0.14,WeatherDisplay:10.37,2013-08-02 19:20:00,
2013-08-02 15:30:00,71.0,61.5,29.94,SSW,211,0.0,9.0,72,0.00,CLR,SKC,0.14,WeatherDisplay:10.37,2013-08-02 19:30:00,
2013-08-02 15:40:00,72.0,62.1,29.93,South,191,2.0,9.0,71,0.00,CLR,SKC,0.14,WeatherDisplay:10.37,2013-08-02 19:40:00,
2013-08-02 15:50:00,71.9,61.6,29.92,SSW,200,2.0,11.0,70,0.00,CLR,SKC,0.14,WeatherDisplay:10.37,2013-08-02 19:50:00,
2013-08-02 16:00:00,73.3,60.8,29.92,SW,217,3.0,10.0,65,0.00,CLR,SKC,0.14,WeatherDisplay:10.37,2013-08-02 20:00:00,
2013-08-02 16:09:00,74.0,60.6,29.91,SSW,211,2.0,11.0,63,0.00,CLR,SKC,0.14,WeatherDisplay:10.37,2013-08-02 20:09:00,
2013-08-02 16:19:00,75.6,60.3,29.90,SSW,200,6.0,14.0,59,0.00,CLR,SKC,0.14,WeatherDisplay:10.37,2013-08-02 20:19:00,
2013-08-02 16:29:00,76.8,60.9,29.89,SW,224,2.0,14.0,58,0.00,CLR,SKC,0.14,WeatherDisplay:10.37,2013-08-02 20:29:00,
2013-08-02 16:39:00,77.9,59.9,29.88,WSW,238,7.0,14.0,54,0.00,CLR,SKC,0.14,WeatherDisplay:10.37,2013-08-02 20:39:00,
2013-08-02 16:49:00,78.8,59.7,29.88,WSW,237,7.0,19.0,52,0.00,CLR,SKC,0.14,WeatherDisplay:10.37,2013-08-02 20:49:00,
2013-08-02 16:59:00,79.0,58.8,29.87,WSW,244,9.0,16.0,50,0.00,CLR,SKC,0.14,WeatherDisplay:10.37,2013-08-02 20:59:00,
2013-08-02 17:09:00,78.7,59.1,29.87,WSW,252,6.0,18.0,51,0.00,CLR,SKC,0.14,WeatherDisplay:10.37,2013-08-02 21:09:00,
2013-08-02 17:19:00,77.4,58.4,29.88,WSW,254,8.0,19.0,52,0.00,CLR,SKC,0.14,WeatherDisplay:10.37,2013-08-02 21:19:00,
2013-08-02 17:29:00,78.1,59.1,29.87,WSW,246,7.0,19.0,52,0.00,CLR,SKC,0.14,WeatherDisplay:10.37,2013-08-02 21:29:00,
2013-08-02 17:39:00,77.3,58.8,29.87,WSW,253,6.0,16.0,53,0.00,CLR,SKC,0.14,WeatherDisplay:10.37,2013-08-02 21:39:00,
2013-08-02 17:49:00,77.9,59.9,29.87,WSW,249,8.0,16.0,54,0.00,CLR,SKC,0.14,WeatherDisplay:10.37,2013-08-02 21:49:00,
2013-08-02 17:59:00,76.8,59.4,29.86,WSW,239,7.0,18.0,55,0.00,CLR,SKC,0.14,WeatherDisplay:10.37,2013-08-02 21:59:00,
2013-08-02 18:09:00,76.8,59.9,29.87,WSW,255,7.0,17.0,56,0.00,CLR,SKC,0.14,WeatherDisplay:10.37,2013-08-02 22:09:00,
2013-08-02 18:19:00,76.5,60.1,29.87,WSW,245,7.0,14.0,57,0.00,CLR,SKC,0.14,WeatherDisplay:10.37,2013-08-02 22:19:00,
2013-08-02 18:29:00,75.6,60.3,29.88,WSW,255,6.0,13.0,59,0.00,CLR,SKC,0.14,WeatherDisplay:10.37,2013-08-02 22:29:00,
2013-08-02 18:40:00,75.5,62.4,29.88,West,261,3.0,14.0,64,0.00,CLR,SKC,0.14,WeatherDisplay:10.37,2013-08-02 22:40:00,
2013-08-02 18:50:00,74.7,63.0,29.89,WSW,251,2.0,10.0,67,0.01,RA,SKC,0.15,WeatherDisplay:10.37,2013-08-02 22:50:00,
2013-08-02 19:00:00,74.1,66.1,29.90,WNW,283,0.0,7.0,76,0.02,RA,SKC,0.17,WeatherDisplay:10.37,2013-08-02 23:00:00,
2013-08-02 19:10:00,71.3,67.9,29.91,NW,320,3.0,17.0,89,0.08,RA,SKC,0.25,WeatherDisplay:10.37,2013-08-02 23:10:00,
2013-08-02 19:20:00,69.9,67.2,29.90,WNW,291,0.0,10.0,91,0.16,RA,SKC,0.41,WeatherDisplay:10.37,2013-08-02 23:20:00,
2013-08-02 19:30:00,69.0,66.5,29.89,WNW,282,0.0,7.0,92,0.09,RA,SKC,0.50,WeatherDisplay:10.37,2013-08-02 23:30:00,
2013-08-02 19:40:00,68.9,66.8,29.89,WNW,288,0.0,0.0,93,0.00,CLR,SKC,0.50,WeatherDisplay:10.37,2013-08-02 23:40:00,
2013-08-02 19:50:00,68.0,66.2,29.90,WNW,288,0.0,0.0,94,0.00,CLR,SKC,0.50,WeatherDisplay:10.37,2013-08-02 23:50:00,
2013-08-02 20:00:00,69.1,67.0,29.91,WNW,288,0.0,0.0,93,0.07,RA,SKC,0.57,WeatherDisplay:10.37,2013-08-03 00:00:00,
2013-08-02 20:10:00,69.4,67.6,29.90,WNW,288,0.0,0.0,94,0.01,RA,SKC,0.58,WeatherDisplay:10.37,2013-08-03 00:10:00,
2013-08-02 20:20:00,69.3,67.2,29.91,WNW,288,0.0,0.0,93,0.00,CLR,SKC,0.58,WeatherDisplay:10.37,2013-08-03 00:20:00,
2013-08-02 20:30:00,69.7,67.9,29.91,WNW,288,0.0,0.0,94,0.00,CLR,SKC,0.58,WeatherDisplay:10.37,2013-08-03 00:30:00,
2013-08-02 20:40:00,68.9,67.1,29.92,WNW,288,0.0,0.0,94,0.00,CLR,SKC,0.58,WeatherDisplay:10.37,2013-08-03 00:40:00,
2013-08-02 20:50:00,69.3,67.2,29.92,WNW,288,0.0,0.0,93,0.01,RA,SKC,0.59,WeatherDisplay:10.37,2013-08-03 00:50:00,
2013-08-02 21:00:00,69.4,67.6,29.92,WNW,288,0.0,0.0,94,0.03,RA,SKC,0.62,WeatherDisplay:10.37,2013-08-03 01:00:00,
2013-08-02 21:10:00,68.5,66.1,29.93,NW,305,0.0,12.0,92,0.05,RA,SKC,0.67,WeatherDisplay:10.37,2013-08-03 01:10:00,
2013-08-02 21:20:00,68.9,66.8,29.93,NW,312,0.0,0.0,93,0.03,RA,SKC,0.70,WeatherDisplay:10.37,2013-08-03 01:20:00,
2013-08-02 21:30:00,68.4,66.3,29.93,NW,312,0.0,0.0,93,0.02,RA,SKC,0.72,WeatherDisplay:10.37,2013-08-03 01:30:00,
2013-08-02 21:40:00,68.6,66.5,29.93,NW,312,0.0,0.0,93,0.02,RA,SKC,0.74,WeatherDisplay:10.37,2013-08-03 01:40:00,
2013-08-02 21:50:00,67.6,65.2,29.95,WNW,295,0.0,6.0,92,0.08,RA,SKC,0.82,WeatherDisplay:10.37,2013-08-03 01:50:00,
2013-08-02 22:00:00,66.9,65.1,29.94,WNW,289,0.0,10.0,94,0.23,RA,SKC,1.05,WeatherDisplay:10.37,2013-08-03 02:00:00,
2013-08-02 22:10:00,67.6,65.8,29.93,WSW,240,0.0,0.0,94,0.02,RA,SKC,1.07,WeatherDisplay:10.37,2013-08-03 02:10:00,
2013-08-02 22:20:00,67.5,66.0,29.92,WSW,240,0.0,0.0,95,0.01,RA,SKC,1.08,WeatherDisplay:10.37,2013-08-03 02:20:00,
2013-08-02 22:30:00,67.3,65.8,29.92,WSW,240,0.0,0.0,95,0.00,,SKC,1.08,WeatherDisplay:10.37,2013-08-03 02:30:00,
2013-08-02 22:40:00,66.8,65.3,29.93,WSW,240,0.0,0.0,95,0.00,CLR,SKC,1.08,WeatherDisplay:10.37,2013-08-03 02:40:00,
2013-08-02 22:50:00,67.8,66.6,29.93,WSW,240,0.0,0.0,96,0.01,RA,SKC,1.09,WeatherDisplay:10.37,2013-08-03 02:50:00,
2013-08-02 23:00:00,67.2,65.7,29.93,WSW,240,0.0,0.0,95,0.02,RA,SKC,1.11,WeatherDisplay:10.37,2013-08-03 03:00:00,
2013-08-02 23:10:00,67.1,65.7,29.93,WSW,240,0.0,0.0,95,0.02,RA,SKC,1.13,WeatherDisplay:10.37,2013-08-03 03:10:00,
2013-08-02 23:20:00,67.1,65.9,29.93,WSW,240,0.0,0.0,96,0.05,RA,SKC,1.18,WeatherDisplay:10.37,2013-08-03 03:20:00,
2013-08-02 23:30:00,67.8,66.6,29.94,WSW,240,0.0,0.0,96,0.04,RA,SKC,1.22,WeatherDisplay:10.37,2013-08-03 03:30:00,
2013-08-02 23:40:00,66.6,65.1,29.94,WSW,240,0.0,0.0,95,0.07,RA,SKC,1.29,WeatherDisplay:10.37,2013-08-03 03:40:00,
2013-08-02 23:50:00,66.9,65.4,29.95,WSW,240,0.0,0.0,95,0.05,RA,SKC,1.34,WeatherDisplay:10.37,2013-08-03 03:50:00,